This is the latest recevied weather packets stored in our database for station/object W2SRH. If no packets are shown the sender has not sent any weather packets the latest 10 day(s).
| Time | Temp. | Humidity | Pressure | Rain* | Wind** | Luminosity | Snow |
|---|---|---|---|---|---|---|---|
| 1777870147 | 10° C | 43% | 1005.6 hPa | 0 mm | 0.45 m/s, 295° | - | - |
| 1777869543 | 10° C | 43% | 1005.6 hPa | 0 mm | 0 m/s | - | - |
| 1777868945 | 10.56° C | 42% | 1005.4 hPa | 0 mm | 0 m/s | - | - |
| 1777868343 | 10.56° C | 42% | 1005.3 hPa | 0 mm | 0 m/s | - | - |
| 1777867743 | 11.11° C | 41% | 1005.3 hPa | 0 mm | 0 m/s | - | - |
| 1777867144 | 11.11° C | 41% | 1005.1 hPa | 0 mm | 0.89 m/s, 273° | - | - |
| 1777866543 | 11.11° C | 41% | 1005.1 hPa | 0 mm | 0.45 m/s, 265° | - | - |
| 1777865944 | 11.11° C | 41% | 1005.1 hPa | 0 mm | 0.45 m/s, 282° | - | - |
| 1777865345 | 11.11° C | 41% | 1005.1 hPa | 0 mm | 0.45 m/s, 271° | - | - |
| 1777864744 | 11.11° C | 41% | 1004.9 hPa | 0 mm | 0 m/s | - | - |
| 1777864144 | 11.11° C | 40% | 1005 hPa | 0 mm | 0.45 m/s, 290° | - | - |
| 1777863544 | 11.11° C | 40% | 1005 hPa | 0 mm | 0.45 m/s, 267° | - | - |
| 1777862944 | 11.11° C | 40% | 1005 hPa | 0 mm | 0.45 m/s, 264° | - | - |
| 1777862344 | 11.67° C | 40% | 1004.9 hPa | 0 mm | 0 m/s | - | - |
| 1777861744 | 11.67° C | 39% | 1005.1 hPa | 0 mm | 0.45 m/s, 261° | - | - |
| 1777861143 | 11.67° C | 39% | 1005 hPa | 0 mm | 0.45 m/s, 269° | - | - |
| 1777860545 | 11.67° C | 39% | 1004.9 hPa | 0 mm | 0.45 m/s, 257° | - | - |
| 1777859943 | 11.67° C | 39% | 1005.1 hPa | 0 mm | 0.45 m/s, 271° | - | - |
| 1777859343 | 11.67° C | 38% | 1004.8 hPa | 0 mm | 0 m/s | - | - |
| 1777858744 | 11.67° C | 37% | 1004.8 hPa | 0 mm | 0.45 m/s, 260° | - | - |
| 1777858144 | 11.67° C | 37% | 1004.8 hPa | 0 mm | 0 m/s | - | - |
| 1777857543 | 12.22° C | 37% | 1004.6 hPa | 0 mm | 0 m/s | - | - |
| 1777856943 | 12.22° C | 35% | 1004.5 hPa | 0 mm | 0.45 m/s, 275° | - | - |
| 1777856343 | 12.78° C | 35% | 1004.3 hPa | 0 mm | 0.45 m/s, 281° | - | - |
| 1777855744 | 12.78° C | 34% | 1004.1 hPa | 0 mm | 0 m/s | - | - |
* Rain latest hour (hover to see other rain measurements)
** Current wind speed in m/s (hover to see current wind gust speed)